Location: Richmond
(37.5536°N, 77.4606°W)
Time: 19:48:01
(UTC-05:00)

ISS - Visible Passes

Search period start: 05 December 2016 00:00
Search period end: 15 December 2016 00:00
Orbit: 401 x 410 km, 51.6° (Epoch: 06 December)

Date Brightness Start Highest point End Pass type
(mag) Time Alt. Az. Time Alt. Az. Time Alt. Az.
05 Dec -1.3 17:36:43 10° WNW 17:39:16 20° NNW 17:41:49 10° NNE visible
07 Dec -0.8 17:30:42 10° NW 17:32:11 12° NNW 17:33:40 10° N visible
14 Dec -1.1 17:55:01 10° N 17:56:31 12° NNE 17:56:42 12° NNE visible
